SCP
0 0 0 0 0 0 0 0 0 0 0 0 0 0 0 0 0 0 0 0 0 0
0 0 0 0 0 0 0 0 0 0 0 0 0 0 0 0 0 0 0 0 0 0
0 0 0 0 0 0 0 0 0 0 0 0 0 0 0 0 0 0 0 0 0 0
0 0 0 0 0 0 0 0 0 0 0 0 0 0 0 0 0 0 0 0 0 0
0 0 0 0 0 0 0 0 0 0 0 0 0 0 0 0 0 0 0 0 0 0
0 0 0 0 0 0 0 0 0 0 0 0 0 0 0 0 0 0 0 0 0 0
0 0 0 0 0 0 0 0 0 0 0 0 0 0 0 0 0 0 0 0 0 0
0 0 0 0 0 0 0 0 0 0 0 0 0 0 0 0 0 0 0 0 0 0
0 0 0 0 0 0 0 0 0 0 0 0 0 0 0 0 0 0 0 0 0 0
0 0 0 0 0 0 0 0 0 0 0 0 0 0 0 0 0 0 0 0 0 0
0 0 0 0 0 0 0 0 0 0 0 0 0 0 0 0 0 0 0 0 0 0
0 0 0 0 0 0 0 0 0 0 0 0 0 0 0 0 0 0 0 0 0 0
0 0 0 0 0 0 0 0 0 0 0 0 0 0 0 0 0 0 0 0 0 0
0 0 0 0 0 0 0 0 0 0 0 0 0 0 0 0 0 0 0 0 0 0
Wind_Speed_500mb
16 12 14 18 15 15 16 20 28 30 33 34 32 27 24 21 23 23 24 25 21 16
8 10 10 13 14 12 15 16 20 24 27 32 36 40 34 24 24 25 28 27 25 23
5 6 9 10 11 14 18 20 19 21 24 28 31 34 36 30 24 25 23 23 28 29
10 10 11 13 15 18 23 23 21 22 24 28 31 35 36 35 29 27 25 25 25 25
16 15 18 19 21 24 27 28 25 24 24 29 32 36 38 36 33 30 28 27 26 25
19 19 21 23 27 30 33 32 29 27 27 32 34 38 40 35 37 33 31 29 29 26
21 27 32 31 30 28 25 27 25 26 31 34 37 40 34 43 38 34 31 31 28 26
30 38 42 38 39 26 18 16 25 30 36 38 41 40 48 46 36 31 30 29 28 28
30 26 27 24 29 30 37 43 29 32 41 41 38 46 42 41 36 29 29 28 28 29
9 14 20 33 41 42 37 43 46 40 38 36 31 38 37 36 30 30 30 31 30 29
20 32 37 34 32 31 32 34 32 31 30 27 27 34 34 34 29 30 32 34 33 34
24 25 27 29 31 31 30 30 29 28 24 23 24 39 41 38 33 32 33 32 33 31
22 22 25 28 29 31 31 30 27 28 29 32 27 33 37 43 31 32 28 29 26 32
21 23 26 29 29 30 28 27 27 30 27 30 26 29 37 37 29 26 29 26 27 27
Wind_Direction_500mb
58 55 51 47 56 42 36 29 30 28 25 22 17 4 349 348 350 344 328 321 326 348
38 62 51 42 47 23 27 19 11 12 11 11 12 14 12 340 340 335 332 334 335 334
314 352 354 360 358 354 357 358 355 355 356 359 358 358 2 352 334 334 326 322 323 327
248 277 304 315 316 319 327 328 331 335 342 345 347 346 346 341 334 328 323 320 319 323
253 271 282 291 297 303 306 306 307 312 321 329 333 336 337 335 329 325 320 315 311 316
255 271 284 289 292 297 302 297 295 298 307 318 322 326 328 328 325 321 315 311 303 305
269 270 282 295 300 299 300 297 294 302 306 312 315 321 314 325 325 319 312 306 300 299
286 286 284 282 281 280 281 291 304 317 308 310 312 307 305 318 324 321 313 306 303 300
305 312 301 291 294 292 291 285 301 309 308 308 307 300 305 313 322 316 318 320 309 299
357 346 327 323 320 318 306 294 298 297 303 298 300 291 304 307 314 310 314 316 318 319
321 322 323 326 327 322 317 315 314 306 306 304 305 302 306 303 307 309 304 307 309 311
342 333 326 319 319 318 314 315 312 310 306 312 317 309 305 305 319 311 305 305 305 298
324 322 320 317 318 314 312 310 308 309 316 309 309 303 315 322 319 305 309 311 315 307
322 323 321 319 320 316 314 305 315 314 313 312 307 316 318 327 326 315 315 309 305 304
Wind_Speed_850mb
16 12 14 18 15 15 16 20 28 30 33 34 32 27 24 21 23 23 24 25 21 16
8 10 10 13 14 12 15 16 20 24 27 32 36 40 34 24 24 25 28 27 25 23
5 6 9 10 11 14 18 20 19 21 24 28 31 34 36 30 24 25 23 23 28 29
10 10 11 13 15 18 23 23 21 22 24 28 31 35 36 35 29 27 25 25 25 25
16 15 18 19 21 24 27 28 25 24 24 29 32 36 38 36 33 30 28 27 26 25
19 19 21 23 27 30 33 32 29 27 27 32 34 38 40 35 37 33 31 29 29 26
21 27 32 31 30 28 25 27 25 26 31 34 37 40 34 43 38 34 31 31 28 26
30 38 42 38 39 26 18 16 25 30 36 38 41 40 48 46 36 31 30 29 28 28
30 26 27 24 29 30 37 43 29 32 41 41 38 46 42 41 36 29 29 28 28 29
9 14 20 33 41 42 37 43 46 40 38 36 31 38 37 36 30 30 30 31 30 29
20 32 37 34 32 31 32 34 32 31 30 27 27 34 34 34 29 30 32 34 33 34
24 25 27 29 31 31 30 30 29 28 24 23 24 39 41 38 33 32 33 32 33 31
22 22 25 28 29 31 31 30 27 28 29 32 27 33 37 43 31 32 28 29 26 32
21 23 26 29 29 30 28 27 27 30 27 30 26 29 37 37 29 26 29 26 27 27
Wind_Direction_850mb
58 55 51 47 56 42 36 29 30 28 25 22 17 4 349 348 350 344 328 321 326 348
38 62 51 42 47 23 27 19 11 12 11 11 12 14 12 340 340 335 332 334 335 334
314 352 354 360 358 354 357 358 355 355 356 359 358 358 2 352 334 334 326 322 323 327
248 277 304 315 316 319 327 328 331 335 342 345 347 346 346 341 334 328 323 320 319 323
253 271 282 291 297 303 306 306 307 312 321 329 333 336 337 335 329 325 320 315 311 316
255 271 284 289 292 297 302 297 295 298 307 318 322 326 328 328 325 321 315 311 303 305
269 270 282 295 300 299 300 297 294 302 306 312 315 321 314 325 325 319 312 306 300 299
286 286 284 282 281 280 281 291 304 317 308 310 312 307 305 318 324 321 313 306 303 300
305 312 301 291 294 292 291 285 301 309 308 308 307 300 305 313 322 316 318 320 309 299
357 346 327 323 320 318 306 294 298 297 303 298 300 291 304 307 314 310 314 316 318 319
321 322 323 326 327 322 317 315 314 306 306 304 305 302 306 303 307 309 304 307 309 311
342 333 326 319 319 318 314 315 312 310 306 312 317 309 305 305 319 311 305 305 305 298
324 322 320 317 318 314 312 310 308 309 316 309 309 303 315 322 319 305 309 311 315 307
322 323 321 319 320 316 314 305 315 314 313 312 307 316 318 327 326 315 315 309 305 304